DLH982 EDDF-EGLL

Flight info

Callsign DLH982
Flight time 0h 52m
Altitude 38000
Route OBOKA2E OBOKA Z29 TORNU DCT ABNED L980 LOGAN
Aircraft A346/H-SDE2E3FGHIJ3J4J5M1RWXY/LB1D1

Departure

Time 2026-05-07 20:33
Airport Frankfurt Main Airport (EDDF)

Arrival

Time 2026-05-07 21:25
Airport London Heathrow Airport (EGLL)
Time Latitude Longitude Altitude Speed Heading
2026-05-07 20:09 50.04768 8.56501 370 ft 0 kts 339°
2026-05-07 20:20 50.04750 8.56511 369 ft 4 kts 342°
2026-05-07 20:21 50.04725 8.56523 371 ft 4 kts 337°
2026-05-07 20:21 50.04714 8.56537 366 ft 4 kts 302°
2026-05-07 20:21 50.04708 8.56559 366 ft 4 kts 262°
2026-05-07 20:21 50.04715 8.56576 364 ft 4 kts 221°
2026-05-07 20:22 50.04735 8.56604 369 ft 4 kts 225°
2026-05-07 20:22 50.04739 8.56609 369 ft 0 kts 226°
2026-05-07 20:27 50.04733 8.56600 364 ft 5 kts 226°
2026-05-07 20:27 50.04686 8.56510 370 ft 15 kts 242°
2026-05-07 20:27 50.04643 8.56338 367 ft 18 kts 249°
2026-05-07 20:27 50.04595 8.56135 368 ft 21 kts 250°
2026-05-07 20:28 50.04533 8.55962 368 ft 19 kts 210°
2026-05-07 20:28 50.04427 8.55912 370 ft 12 kts 193°
2026-05-07 20:28 50.04335 8.55933 368 ft 16 kts 158°
2026-05-07 20:28 50.04236 8.55924 366 ft 18 kts 245°
2026-05-07 20:29 50.04189 8.55723 365 ft 21 kts 249°
2026-05-07 20:29 50.04139 8.55519 364 ft 20 kts 249°
2026-05-07 20:29 50.04086 8.55299 368 ft 22 kts 249°
2026-05-07 20:29 50.04029 8.55064 363 ft 24 kts 250°
2026-05-07 20:30 50.03969 8.54803 366 ft 27 kts 250°
2026-05-07 20:30 50.03904 8.54535 363 ft 25 kts 249°
2026-05-07 20:30 50.03820 8.54277 361 ft 28 kts 238°
2026-05-07 20:30 50.03753 8.54026 360 ft 19 kts 250°
2026-05-07 20:31 50.03705 8.53826 358 ft 17 kts 250°
2026-05-07 20:31 50.03660 8.53641 358 ft 20 kts 245°
2026-05-07 20:31 50.03547 8.53499 354 ft 23 kts 201°
2026-05-07 20:31 50.03433 8.53364 355 ft 14 kts 248°
2026-05-07 20:32 50.03370 8.53336 356 ft 13 kts 145°
2026-05-07 20:32 50.03304 8.53447 355 ft 15 kts 123°
2026-05-07 20:32 50.03293 8.53614 356 ft 18 kts 70°
2026-05-07 20:32 50.03346 8.53807 352 ft 27 kts 68°
2026-05-07 20:33 50.03510 8.54498 358 ft 113 kts 70°
2026-05-07 20:33 50.03878 8.56032 377 ft 184 kts 69°
2026-05-07 20:33 50.04358 8.58048 996 ft 208 kts 69°
2026-05-07 20:33 50.04883 8.60253 1851 ft 231 kts 69°
2026-05-07 20:34 50.05510 8.62705 2724 ft 247 kts 60°
2026-05-07 20:34 50.06716 8.64483 3919 ft 237 kts 21°
2026-05-07 20:34 50.08282 8.64709 5158 ft 224 kts 348°
2026-05-07 20:34 50.09771 8.64166 6291 ft 219 kts 345°
2026-05-07 20:35 50.11293 8.63683 7076 ft 229 kts 349°
2026-05-07 20:35 50.12933 8.63360 7653 ft 246 kts 353°
2026-05-07 20:35 50.14715 8.63133 8243 ft 264 kts 355°
2026-05-07 20:35 50.16611 8.62958 8902 ft 279 kts 356°
2026-05-07 20:36 50.18573 8.62809 9806 ft 284 kts 356°
2026-05-07 20:36 50.20567 8.62672 10668 ft 290 kts 356°
2026-05-07 20:36 50.22640 8.62533 11234 ft 307 kts 356°
2026-05-07 20:36 50.24810 8.62386 11717 ft 325 kts 356°
2026-05-07 20:37 50.27139 8.62228 12184 ft 343 kts 356°
2026-05-07 20:37 50.29557 8.61704 12598 ft 360 kts 341°
2026-05-07 20:37 50.31821 8.59861 12999 ft 375 kts 321°
2026-05-07 20:37 50.33586 8.56813 13656 ft 381 kts 302°
2026-05-07 20:38 50.34826 8.53134 14032 ft 383 kts 295°
2026-05-07 20:38 50.35996 8.49373 14078 ft 383 kts 295°
2026-05-07 20:38 50.37158 8.45608 14085 ft 383 kts 295°
2026-05-07 20:38 50.38307 8.41894 14085 ft 383 kts 295°
2026-05-07 20:39 50.39472 8.38131 14090 ft 383 kts 295°
2026-05-07 20:39 50.40641 8.34353 14132 ft 388 kts 295°
2026-05-07 20:39 50.41837 8.30492 14748 ft 394 kts 295°
2026-05-07 20:39 50.43029 8.26637 15757 ft 391 kts 295°
2026-05-07 20:40 50.44222 8.22773 16625 ft 394 kts 295°
2026-05-07 20:40 50.45427 8.18866 17397 ft 399 kts 295°
2026-05-07 20:40 50.46644 8.14916 18157 ft 404 kts 295°
2026-05-07 20:40 50.47859 8.10967 18844 ft 408 kts 295°
2026-05-07 20:41 50.49104 8.06917 19521 ft 412 kts 295°
2026-05-07 20:41 50.50352 8.02849 20190 ft 415 kts 295°
2026-05-07 20:41 50.51613 7.98733 20873 ft 419 kts 295°
2026-05-07 20:41 50.52880 7.94587 21543 ft 422 kts 294°
2026-05-07 20:42 50.54161 7.90392 22208 ft 426 kts 294°
2026-05-07 20:42 50.55449 7.86161 22865 ft 430 kts 294°
2026-05-07 20:42 50.56747 7.81893 23505 ft 434 kts 294°
2026-05-07 20:42 50.58054 7.77585 24059 ft 437 kts 294°
2026-05-07 20:43 50.59370 7.73237 24610 ft 441 kts 294°
2026-05-07 20:43 50.60694 7.68856 25140 ft 444 kts 294°
2026-05-07 20:43 50.62009 7.64498 25677 ft 447 kts 294°
2026-05-07 20:43 50.63349 7.60051 26219 ft 450 kts 294°
2026-05-07 20:44 50.64698 7.55565 26738 ft 453 kts 294°
2026-05-07 20:44 50.66056 7.51041 27251 ft 457 kts 294°
2026-05-07 20:44 50.67421 7.46490 27757 ft 460 kts 294°
2026-05-07 20:44 50.68775 7.41967 28269 ft 463 kts 294°
2026-05-07 20:45 50.70147 7.37374 28878 ft 463 kts 294°
2026-05-07 20:45 50.71515 7.32786 29677 ft 459 kts 294°
2026-05-07 20:45 50.72881 7.28198 30444 ft 456 kts 294°
2026-05-07 20:45 50.74227 7.23665 31060 ft 454 kts 294°
2026-05-07 20:46 50.75568 7.19140 31667 ft 453 kts 294°
2026-05-07 20:46 50.76902 7.14629 32250 ft 452 kts 294°
2026-05-07 20:46 50.78233 7.10121 32839 ft 451 kts 294°
2026-05-07 20:46 50.79560 7.05616 33434 ft 450 kts 293°
2026-05-07 20:47 50.80865 7.01179 34006 ft 449 kts 293°
2026-05-07 20:47 50.82175 6.96717 34516 ft 447 kts 293°
2026-05-07 20:47 50.83488 6.92236 34965 ft 447 kts 293°
2026-05-07 20:47 50.84789 6.87768 35371 ft 447 kts 292°
2026-05-07 20:48 50.85990 6.83209 35748 ft 447 kts 290°
2026-05-07 20:48 50.87138 6.78609 36135 ft 447 kts 290°
2026-05-07 20:48 50.88273 6.74017 36494 ft 448 kts 290°
2026-05-07 20:48 50.89412 6.69413 36799 ft 450 kts 290°
2026-05-07 20:49 50.90574 6.64732 37070 ft 452 kts 290°
2026-05-07 20:49 50.91729 6.60084 37337 ft 454 kts 290°
2026-05-07 20:49 50.92890 6.55414 37611 ft 456 kts 290°
2026-05-07 20:49 50.94042 6.50782 37855 ft 457 kts 290°
2026-05-07 20:50 50.95228 6.46005 38075 ft 459 kts 290°
2026-05-07 20:50 50.97690 6.36063 38079 ft 461 kts 290°
2026-05-07 20:51 51.03518 6.12359 38084 ft 461 kts 289°
2026-05-07 20:51 51.08143 5.93368 38076 ft 460 kts 289°
2026-05-07 20:52 51.14609 5.66539 38082 ft 460 kts 289°
2026-05-07 20:52 51.20003 5.43899 38079 ft 460 kts 289°
2026-05-07 20:53 51.23993 5.26998 38082 ft 461 kts 289°
2026-05-07 20:53 51.28962 5.05771 38081 ft 461 kts 289°
2026-05-07 20:54 51.34242 4.82973 38078 ft 461 kts 288°
2026-05-07 20:54 51.39625 4.59484 38078 ft 460 kts 288°
2026-05-07 20:55 51.44622 4.37434 38075 ft 460 kts 288°
2026-05-07 20:55 51.49724 4.14684 38077 ft 460 kts 288°
2026-05-07 20:56 51.54046 3.95220 38076 ft 462 kts 288°
2026-05-07 20:56 51.58342 3.75693 38081 ft 462 kts 288°
2026-05-07 20:57 51.62590 3.56195 38080 ft 462 kts 287°
2026-05-07 20:57 51.66818 3.36604 38085 ft 461 kts 287°
2026-05-07 20:58 51.71008 3.17004 38089 ft 461 kts 287°
2026-05-07 20:58 51.75140 2.97489 38095 ft 461 kts 287°
2026-05-07 20:59 51.79167 2.77771 38100 ft 461 kts 283°
2026-05-07 20:59 51.80781 2.57287 38098 ft 458 kts 268°
2026-05-07 21:00 51.79676 2.36179 38114 ft 457 kts 263°
2026-05-07 21:00 51.79026 2.25949 37347 ft 452 kts 263°
2026-05-07 21:00 51.78376 2.15801 35286 ft 445 kts 263°
2026-05-07 21:00 51.77760 2.06234 34122 ft 421 kts 263°
2026-05-07 21:01 51.77160 1.97028 32769 ft 400 kts 263°
2026-05-07 21:01 51.76575 1.88146 31002 ft 393 kts 263°
2026-05-07 21:01 51.75995 1.79455 29439 ft 380 kts 263°
2026-05-07 21:01 51.75431 1.71092 27887 ft 368 kts 263°
2026-05-07 21:02 51.74856 1.62684 26502 ft 352 kts 263°
2026-05-07 21:02 51.74277 1.53802 24943 ft 342 kts 263°
2026-05-07 21:02 51.73798 1.46266 23693 ft 334 kts 263°
2026-05-07 21:02 51.73325 1.38918 22835 ft 323 kts 263°
2026-05-07 21:03 51.72861 1.31820 21973 ft 313 kts 263°
2026-05-07 21:03 51.72392 1.24711 21041 ft 307 kts 263°
2026-05-07 21:03 51.71941 1.17938 20138 ft 302 kts 263°
2026-05-07 21:03 51.71489 1.11216 19264 ft 297 kts 263°
2026-05-07 21:04 51.71038 1.04574 18413 ft 293 kts 262°
2026-05-07 21:04 51.70591 0.98038 16988 ft 295 kts 262°
2026-05-07 21:04 51.70143 0.91511 15703 ft 292 kts 262°
2026-05-07 21:04 51.69719 0.85409 14592 ft 289 kts 262°
2026-05-07 21:05 51.69499 0.82262 14158 ft 283 kts 262°
2026-05-07 21:05 51.69276 0.79089 13653 ft 279 kts 262°
2026-05-07 21:05 51.69058 0.76020 13216 ft 279 kts 262°
2026-05-07 21:05 51.68833 0.72871 12638 ft 286 kts 262°
2026-05-07 21:06 51.68603 0.69659 12149 ft 289 kts 262°
2026-05-07 21:06 51.68374 0.66437 11733 ft 288 kts 262°
2026-05-07 21:06 51.68145 0.63222 11348 ft 287 kts 262°
2026-05-07 21:06 51.67916 0.60031 10975 ft 285 kts 262°
2026-05-07 21:07 51.67687 0.56865 10616 ft 283 kts 262°
2026-05-07 21:07 51.67459 0.53720 10252 ft 281 kts 262°
2026-05-07 21:07 51.67232 0.50591 9893 ft 280 kts 262°
2026-05-07 21:07 51.67004 0.47475 9526 ft 277 kts 262°
2026-05-07 21:08 51.66781 0.44448 9249 ft 273 kts 262°
2026-05-07 21:08 51.66560 0.41428 8956 ft 269 kts 263°
2026-05-07 21:08 51.66341 0.38452 8662 ft 266 kts 263°
2026-05-07 21:08 51.66123 0.35480 8369 ft 263 kts 262°
2026-05-07 21:09 51.65906 0.32557 8081 ft 260 kts 262°
2026-05-07 21:09 51.65691 0.29665 7802 ft 258 kts 262°
2026-05-07 21:09 51.65478 0.26801 7523 ft 256 kts 262°
2026-05-07 21:09 51.65262 0.23957 7247 ft 255 kts 263°
2026-05-07 21:10 51.65054 0.21186 7135 ft 245 kts 262°
2026-05-07 21:10 51.64852 0.18513 7070 ft 234 kts 262°
2026-05-07 21:10 51.64658 0.15941 7018 ft 229 kts 262°
2026-05-07 21:10 51.64479 0.13304 7027 ft 239 kts 264°
2026-05-07 21:11 51.64333 0.10620 7022 ft 240 kts 264°
2026-05-07 21:11 51.64191 0.07939 7019 ft 240 kts 264°
2026-05-07 21:11 51.63904 0.02581 7017 ft 240 kts 264°
2026-05-07 21:12 51.63756 -0.00102 7020 ft 239 kts 264°
2026-05-07 21:12 51.63604 -0.02785 6993 ft 239 kts 264°
2026-05-07 21:12 51.63455 -0.05464 6994 ft 238 kts 264°
2026-05-07 21:12 51.63308 -0.08100 6992 ft 239 kts 264°
2026-05-07 21:13 51.63154 -0.10815 6994 ft 239 kts 264°
2026-05-07 21:13 51.63005 -0.13459 6996 ft 239 kts 264°
2026-05-07 21:13 51.62853 -0.16124 6994 ft 238 kts 264°
2026-05-07 21:13 51.62700 -0.18791 6994 ft 239 kts 264°
2026-05-07 21:14 51.62547 -0.21452 6997 ft 238 kts 264°
2026-05-07 21:14 51.62394 -0.24117 6995 ft 238 kts 264°
2026-05-07 21:14 51.62239 -0.26774 6994 ft 238 kts 264°
2026-05-07 21:14 51.62084 -0.29433 6991 ft 238 kts 264°
2026-05-07 21:15 51.61930 -0.32082 6993 ft 237 kts 264°
2026-05-07 21:15 51.61775 -0.34725 6992 ft 237 kts 264°
2026-05-07 21:15 51.61619 -0.37367 6985 ft 236 kts 264°
2026-05-07 21:15 51.61463 -0.40006 6991 ft 236 kts 264°
2026-05-07 21:16 51.61306 -0.42661 6993 ft 236 kts 264°
2026-05-07 21:16 51.61150 -0.45262 6989 ft 235 kts 264°
2026-05-07 21:16 51.60994 -0.47886 6991 ft 235 kts 264°
2026-05-07 21:16 51.60837 -0.50505 6990 ft 234 kts 264°
2026-05-07 21:17 51.60679 -0.53123 7001 ft 234 kts 264°
2026-05-07 21:17 51.60520 -0.55739 7046 ft 234 kts 264°
2026-05-07 21:17 51.60361 -0.58359 7002 ft 235 kts 264°
2026-05-07 21:17 51.60203 -0.60942 6933 ft 234 kts 264°
2026-05-07 21:18 51.60042 -0.63575 6927 ft 232 kts 264°
2026-05-07 21:18 51.59886 -0.66136 6931 ft 234 kts 264°
2026-05-07 21:18 51.59724 -0.68761 6626 ft 237 kts 264°
2026-05-07 21:18 51.59559 -0.71434 6239 ft 241 kts 264°
2026-05-07 21:19 51.59393 -0.74119 5993 ft 238 kts 264°
2026-05-07 21:19 51.59143 -0.76691 5929 ft 229 kts 249°
2026-05-07 21:19 51.58285 -0.78841 5447 ft 233 kts 216°
2026-05-07 21:19 51.56809 -0.79913 4967 ft 238 kts 182°
2026-05-07 21:20 51.55166 -0.79890 4557 ft 240 kts 174°
2026-05-07 21:20 51.53517 -0.79660 4341 ft 236 kts 173°
2026-05-07 21:20 51.51887 -0.79457 4059 ft 234 kts 174°
2026-05-07 21:20 51.50295 -0.79082 3799 ft 230 kts 156°
2026-05-07 21:21 51.49018 -0.77626 3550 ft 224 kts 133°
2026-05-07 21:21 51.48007 -0.75738 3295 ft 221 kts 117°
2026-05-07 21:21 51.47601 -0.73389 3067 ft 218 kts 95°
2026-05-07 21:21 51.47599 -0.70991 2827 ft 216 kts 88°
2026-05-07 21:22 51.47682 -0.68626 2642 ft 207 kts 88°
2026-05-07 21:22 51.47726 -0.66354 2311 ft 199 kts 90°
2026-05-07 21:22 51.47734 -0.64192 2034 ft 187 kts 90°
2026-05-07 21:22 51.47737 -0.62161 1771 ft 175 kts 91°
2026-05-07 21:23 51.47734 -0.60281 1521 ft 162 kts 91°
2026-05-07 21:23 51.47730 -0.58526 1324 ft 155 kts 92°
2026-05-07 21:23 51.47729 -0.56801 1138 ft 154 kts 91°
2026-05-07 21:23 51.47731 -0.55116 943 ft 151 kts 91°
2026-05-07 21:24 51.47739 -0.53435 751 ft 149 kts 91°
2026-05-07 21:24 51.47750 -0.51775 558 ft 148 kts 90°
2026-05-07 21:24 51.47752 -0.50136 332 ft 145 kts 91°
2026-05-07 21:24 51.47753 -0.48518 137 ft 144 kts 90°
2026-05-07 21:25 51.47753 -0.47043 96 ft 107 kts 92°
2026-05-07 21:25 51.47759 -0.46155 97 ft 55 kts 89°
2026-05-07 21:25 51.47761 -0.45747 95 ft 30 kts 90°
2026-05-07 21:25 51.47740 -0.45505 97 ft 17 kts 132°
2026-05-07 21:26 51.47644 -0.45465 94 ft 13 kts 184°
2026-05-07 21:26 51.47597 -0.45578 98 ft 15 kts 267°
2026-05-07 21:26 51.47596 -0.45739 98 ft 12 kts 269°
2026-05-07 21:26 51.47595 -0.45896 77 ft 16 kts 270°
2026-05-07 21:27 51.47594 -0.46093 97 ft 19 kts 270°
2026-05-07 21:27 51.47594 -0.46327 98 ft 22 kts 270°
2026-05-07 21:27 51.47592 -0.46593 95 ft 25 kts 269°
2026-05-07 21:27 51.47590 -0.46820 95 ft 20 kts 264°
2026-05-07 21:28 51.47583 -0.47057 98 ft 23 kts 270°
2026-05-07 21:28 51.47581 -0.47288 98 ft 21 kts 262°
2026-05-07 21:28 51.47494 -0.47357 95 ft 17 kts 178°
2026-05-07 21:28 51.47362 -0.47352 95 ft 21 kts 180°
2026-05-07 21:29 51.47304 -0.47353 95 ft 0 kts 180°
2026-05-07 21:29 51.47295 -0.47353 96 ft 2 kts 183°
2026-05-07 21:29 51.47280 -0.47362 98 ft 0 kts 203°
2026-05-07 21:29 51.47270 -0.47369 98 ft 3 kts 203°
2026-05-07 21:30 51.47240 -0.47395 98 ft 6 kts 220°
2026-05-07 21:30 51.47229 -0.47421 97 ft 1 kts 240°
2026-05-07 21:30 51.47223 -0.47443 98 ft 2 kts 261°
2026-05-07 21:30 51.47223 -0.47471 98 ft 0 kts 271°
2026-05-07 21:31 51.47223 -0.47485 98 ft 0 kts 271°
2026-05-07 21:31 51.47223 -0.47496 98 ft 0 kts 270°